GW3042 Weather Reports


time (UTC)temp
C
wind
direction
speed
KPH
gust
KPH
rain 1hr
cm
rain 24hr
cm
rain mn
cm
humidity
%
barometer
mb
20260507213059 12 123 0.0 0.0 0.00 0.30 0.23 84 1015.0
20260507211550 12 123 0.0 0.0 0.00 0.30 0.23 84 1014.9
20260507210043 12 123 0.0 0.0 0.00 0.33 0.23 83 1015.0
20260507204529 12 123 0.0 0.0 0.00 0.33 0.23 82 1014.8
20260507203036 13 123 0.0 0.0 0.00 0.33 0.23 81 1014.7
20260507201506 13 123 0.0 0.0 0.00 0.33 0.23 80 1014.4
20260507194558 14 123 0.0 0.0 0.00 0.43 0.23 78 1014.0
20260507193038 14 123 0.0 0.0 0.00 0.43 0.23 77 1013.7
20260507191523 15 123 0.0 4.8 0.00 0.43 0.23 75 1013.5
20260507190014 15 47 0.0 11.3 0.00 0.43 0.23 72 1013.1
20260507184502 15 144 0.0 4.8 0.00 0.43 0.23 71 1012.8
20260507183053 16 146 1.6 4.8 0.00 0.43 0.23 70 1012.6
20260507181544 16 63 4.8 16.1 0.00 0.43 0.23 64 1012.3
20260507180029 16 67 3.2 9.7 0.00 0.43 0.23 66 1012.1
20260507174523 17 133 1.6 6.4 0.00 0.43 0.23 64 1011.7
20260507173011 18 52 0.0 4.8 0.00 0.43 0.23 61 1011.6
20260507171600 18 121 0.0 4.8 0.00 0.43 0.23 60 1011.5
20260507170047 20 121 0.0 4.8 0.00 0.46 0.23 56 1011.4
20260507164535 21 123 0.0 4.8 0.00 0.46 0.23 51 1011.2
20260507163026 20 124 0.0 6.4 0.00 0.46 0.23 51 1011.3
20260507161511 21 118 0.0 3.2 0.00 0.46 0.23 49 1011.4
20260507160105 21 96 1.6 6.4 0.00 0.58 0.23 51 1011.3
20260507154551 21 119 4.8 11.3 0.00 0.58 0.23 47 1011.5
20260507153041 20 118 1.6 9.7 0.00 0.58 0.23 51 1011.4
20260507151531 20 119 1.6 16.1 0.00 0.58 0.23 51 1011.6
20260507150027 21 179 4.8 12.9 0.00 0.79 0.23 49 1011.7
20260507144506 20 139 4.8 17.7 0.00 0.79 0.23 51 1011.8
20260507143103 20 156 4.8 16.1 0.00 0.79 0.23 50 1012.0
20260507141556 20 164 4.8 16.1 0.00 0.79 0.23 49 1012.4
20260507140037 20 198 1.6 6.4 0.00 1.09 0.23 53 1012.4
20260507134523 19 212 1.6 6.4 0.00 1.09 0.23 51 1012.5
20260507133017 19 241 3.2 9.7 0.00 1.09 0.23 54 1012.8
20260507131602 20 241 4.8 12.9 0.00 1.09 0.23 53 1012.8
20260507130059 20 238 0.0 3.2 0.00 1.19 0.23 55 1012.7
20260507124536 21 233 0.0 8.0 0.00 1.19 0.23 52 1012.5
20260507123015 21 102 3.2 9.7 0.00 1.19 0.23 50 1012.4
20260507121505 21 313 1.6 6.4 0.00 1.19 0.23 51 1012.3
20260507120056 20 113 0.0 9.7 0.00 1.19 0.23 57 1012.4
20260507114559 20 115 1.6 9.7 0.00 1.19 0.23 56 1012.7
20260507113037 20 36 1.6 8.0 0.00 1.19 0.23 58 1012.8
20260507111526 20 275 1.6 8.0 0.00 1.19 0.23 58 1013.1
20260507110014 20 19 1.6 8.0 0.00 1.19 0.23 60 1013.1
20260507104502 20 78 1.6 8.0 0.00 1.19 0.23 58 1013.3
20260507103055 19 37 3.2 9.7 0.00 1.19 0.23 58 1013.5
20260507101545 18 275 1.6 4.8 0.00 1.19 0.23 64 1013.7
20260507100032 17 233 0.0 3.2 0.00 1.22 0.23 66 1013.6
20260507094523 17 233 1.6 6.4 0.00 1.22 0.23 60 1013.9
20260507093009 17 234 0.0 4.8 0.00 1.22 0.23 66 1013.8
20260507091601 16 223 0.0 3.2 0.00 1.22 0.23 65 1013.9
20260507090047 16 223 0.0 3.2 0.00 1.24 0.23 71 1013.8
20260507084540 16 137 0.0 3.2 0.00 1.24 0.23 72 1013.9
20260507083030 15 44 0.0 4.8 0.00 1.24 0.23 77 1013.8
20260507081517 14 45 0.0 1.6 0.00 1.24 0.23 84 1014.0
20260507080001 13 45 0.0 4.8 0.00 1.27 0.23 90 1014.0
20260507074554 13 45 0.0 3.2 0.03 1.27 0.23 94 1014.1
20260507073046 12 45 0.0 1.6 0.03 1.27 0.23 96 1014.3
20260507071529 11 45 0.0 1.6 0.03 1.27 0.23 96 1014.3
20260507070027 10 45 0.0 0.0 0.03 1.35 0.23 96 1014.3
20260507064505 9 45 0.0 0.0 0.00 1.32 0.23 96 1014.4
20260507063100 8 45 0.0 0.0 0.00 1.32 0.23 95 1014.4
20260507061547 8 45 0.0 1.6 0.03 1.32 0.23 95 1014.4
20260507060036 7 45 0.0 1.6 0.03 1.42 0.23 95 1014.3
20260507054524 7 45 0.0 0.0 0.03 1.42 0.23 95 1014.3
20260507053013 7 45 0.0 0.0 0.03 1.42 0.23 95 1014.1
20260507051502 7 45 0.0 0.0 0.00 1.40 0.20 95 1013.9
20260507050053 7 45 0.0 0.0 0.03 1.75 0.20 95 1013.7
20260507044557 7 45 0.0 1.6 0.03 1.75 0.20 95 1013.6
20260507043033 7 45 0.0 1.6 0.03 1.75 0.20 95 1013.4
20260507041522 8 45 0.0 0.0 0.03 1.75 0.20 95 1013.3
20260507040011 8 45 0.0 0.0 0.00 2.34 0.18 95 1013.4
20260507034502 8 45 0.0 0.0 0.03 2.34 0.18 95 1013.3
20260507033105 8 45 0.0 0.0 0.03 2.34 0.18 95 1013.4
20260507031555 8 45 0.0 1.6 0.03 2.34 0.18 95 1013.4
20260507030033 9 45 0.0 1.6 0.05 2.72 0.18 95 1013.3
20260507024522 9 45 0.0 3.2 0.03 2.69 0.15 95 1013.4
20260507023011 9 40 0.0 0.0 0.03 2.69 0.15 94 1013.3
20260507021600 9 40 0.0 0.0 0.05 2.69 0.15 94 1013.3
20260507020057 9 40 0.0 0.0 0.03 2.84 0.15 95 1013.1
20260507014548 9 40 0.0 0.0 0.03 2.84 0.15 94 1012.9
20260507013034 10 40 0.0 0.0 0.05 2.84 0.15 94 1012.6
20260507011525 10 40 0.0 0.0 0.03 2.84 0.13 94 1012.8
20260507010003 10 40 0.0 0.0 0.05 2.84 0.13 94 1012.7
20260507004553 10 40 0.0 0.0 0.05 2.84 0.13 94 1012.7
20260507003039 10 40 0.0 0.0 0.03 2.84 0.10 94 1012.7
20260507001534 10 40 0.0 1.6 0.05 2.84 0.10 94 1012.8
20260507000017 10 40 0.0 1.6 0.05 2.84 0.08 94 1012.6
20260506234506 10 40 0.0 1.6 0.05 2.84 0.08 94 1012.7
20260506233059 10 40 0.0 0.0 0.05 2.84 0.08 94 1012.8
20260506231554 11 40 0.0 3.2 0.05 2.82 0.05 94 1012.9
20260506230037 11 38 0.0 1.6 0.05 2.79 0.05 94 1012.8
20260506224527 11 38 0.0 0.0 0.05 2.79 0.05 94 1012.9
20260506223018 11 38 0.0 0.0 0.05 2.77 0.03 94 1012.8
20260506221507 11 38 0.0 1.6 0.05 2.77 0.03 94 1012.7
20260506214548 11 38 0.0 1.6 0.05 2.79 2.74 93 1012.5